owner,sensor,date,latitude,longitude,vertical_datum,wind_speed,wind_to_direction,wind_speed_of_gust,qcFlag 
TABS,ioos:station:wmo:42047:1,2007-08-01T00:09:00Z,27.8966,-93.5973,4.0,3.146585451,102.6674512,4.15,'11111222,11111222,11111222' 
TABS,ioos:station:wmo:42047:1,2007-08-01T01:39:00Z,27.8966,-93.5973,4.0,3.991440843,172.8039919,5.56,'11111222,11111222,11111222' 
TABS,ioos:station:wmo:42047:1,2007-08-01T04:39:00Z,27.8966,-93.5973,4.0,5.241116293,264.8550699,6.3,'11111222,11111222,11111222' 
TABS,ioos:station:wmo:42047:1,2007-08-01T05:09:00Z,27.8966,-93.5973,4.0,5.812434946,266.2515047,7.01,'11111222,11111222,11111222' 
TABS,ioos:station:wmo:42047:1,2007-08-01T05:39:00Z,27.8966,-93.5973,4.0,5.351831462,268.5010168,6.22,'11111222,11111222,11111222' 
TABS,ioos:station:wmo:42047:1,2007-08-01T06:09:00Z,27.8966,-93.5973,4.0,5.473298822,278.7222653,6.71,'11111222,11111222,11111222' 
TABS,ioos:station:wmo:42047:1,2007-08-01T06:39:00Z,27.8966,-93.5973,4.0,5.04477948,282.2454438,6.27,'11111222,11111222,11111222' 
TABS,ioos:station:wmo:42047:1,2007-08-01T07:09:00Z,27.8966,-93.5973,4.0,4.95307985,292.6820996,6.38,'11111222,11111222,11111222' 
TABS,ioos:station:wmo:42047:1,2007-08-01T07:39:00Z,27.8966,-93.5973,4.0,4.732060862,297.4313978,6.06,'11111222,11111222,11111222' 
TABS,ioos:station:wmo:42047:1,2007-08-01T08:09:00Z,27.8966,-93.5973,4.0,4.09810932,299.6927879,5.52,'11111222,11111222,11111222' 
TABS,ioos:station:wmo:42047:1,2007-08-01T08:39:00Z,27.8966,-93.5973,4.0,3.582094359,307.2856854,4.93,'11111222,11111222,11111222' 
TABS,ioos:station:wmo:42047:1,2007-08-01T09:09:00Z,27.8966,-93.5973,4.0,3.960202015,315.8183483,5.25,'11111222,11111222,11111222' 
TABS,ioos:station:wmo:42047:1,2007-08-01T09:39:00Z,27.8966,-93.5973,4.0,3.229674906,295.2954872,4.8,'11111222,11111222,11111222' 
TABS,ioos:station:wmo:42047:1,2007-08-01T10:09:00Z,27.8966,-93.5973,4.0,3.320542124,307.9051622,4.41,'11111222,11111222,11111222' 
TABS,ioos:station:wmo:42047:1,2007-08-01T10:39:00Z,27.8966,-93.5973,4.0,3.072474573,305.8627651,4.6,'11111222,11111222,11111222' 
TABS,ioos:station:wmo:42047:1,2007-08-01T11:09:00Z,27.8966,-93.5973,4.0,2.822268591,310.689279,4.84,'11111222,11111222,11111222' 
TABS,ioos:station:wmo:42047:1,2007-08-01T11:39:00Z,27.8966,-93.5973,4.0,2.857481409,324.9749982,4.27,'11111222,11111222,11111222' 
TABS,ioos:station:wmo:42047:1,2007-08-01T12:09:00Z,27.8966,-93.5973,4.0,3.021009765,340.0653403,4.84,'11111222,11111222,11111222' 
TABS,ioos:station:wmo:42047:1,2007-08-01T12:39:00Z,27.8966,-93.5973,4.0,2.610076627,343.3005844,4.42,'11111222,11111222,11111222' 
TABS,ioos:station:wmo:42047:1,2007-08-01T13:09:00Z,27.8966,-93.5973,4.0,2.781887848,351.316283,4.4,'11111222,11111222,11111222' 
TABS,ioos:station:wmo:42047:1,2007-08-01T13:39:00Z,27.8966,-93.5973,4.0,2.880624932,358.8063029,4.34,'11111222,11111222,11111222' 
TABS,ioos:station:wmo:42047:1,2007-08-01T14:09:00Z,27.8966,-93.5973,4.0,2.851420699,358.1910544,4.14,'11111222,11111222,11111222' 
TABS,ioos:station:wmo:42047:1,2007-08-01T14:39:00Z,27.8966,-93.5973,4.0,3.029257335,7.969381299,4.31,'11111222,11111222,11111222' 
TABS,ioos:station:wmo:42047:1,2007-08-01T15:09:00Z,27.8966,-93.5973,4.0,2.800178566,8.419242371,3.88,'11111222,11111222,11111222' 
TABS,ioos:station:wmo:42047:1,2007-08-01T15:39:00Z,27.8966,-93.5973,4.0,2.402998127,2.862188074,3.49,'11111222,11111222,11111222' 
TABS,ioos:station:wmo:42047:1,2007-08-01T16:09:00Z,27.8966,-93.5973,4.0,2.49002008,0.229891298,3.51,'11111222,11111222,11111222' 
TABS,ioos:station:wmo:42047:1,2007-08-01T16:39:00Z,27.8966,-93.5973,4.0,2.911219676,12.69934433,5.54,'11111222,11111222,11111222' 
TABS,ioos:station:wmo:42047:1,2007-08-01T17:09:00Z,27.8966,-93.5973,4.0,2.34559161,6.609717978,3.91,'11111222,11111222,11111222' 
TABS,ioos:station:wmo:42047:1,2007-08-01T17:39:00Z,27.8966,-93.5973,4.0,2.47145706,13.81109204,3.91,'11111222,11111222,11111222' 
TABS,ioos:station:wmo:42047:1,2007-08-01T18:09:00Z,27.8966,-93.5973,4.0,2.34763711,16.58211271,3.64,'11111222,11111222,11111222' 
TABS,ioos:station:wmo:42047:1,2007-08-01T18:39:00Z,27.8966,-93.5973,4.0,2.258185112,19.39755663,3.61,'11111222,11111222,11111222' 
TABS,ioos:station:wmo:42047:1,2007-08-01T19:09:00Z,27.8966,-93.5973,4.0,2.624576156,32.23650071,4.18,'11111222,11111222,11111222' 
TABS,ioos:station:wmo:42047:1,2007-08-01T19:39:00Z,27.8966,-93.5973,4.0,2.315361743,47.97567784,3.71,'11111222,11111222,11111222' 
TABS,ioos:station:wmo:42047:1,2007-08-01T20:09:00Z,27.8966,-93.5973,4.0,2.04685124,56.15431797,3.31,'11111222,11111222,11111222' 
TABS,ioos:station:wmo:42047:1,2007-08-01T20:39:00Z,27.8966,-93.5973,4.0,2.169101196,62.84393419,3.52,'11111222,11111222,11111222' 
TABS,ioos:station:wmo:42047:1,2007-08-01T21:09:00Z,27.8966,-93.5973,4.0,1.711432149,80.92254651,3.03,'11111222,11111222,11111222' 
TABS,ioos:station:wmo:42047:1,2007-08-01T21:39:00Z,27.8966,-93.5973,4.0,1.153169545,101.5052093,2.27,'11111222,11111222,11111222' 
TABS,ioos:station:wmo:42047:1,2007-08-01T22:09:00Z,27.8966,-93.5973,4.0,1.121605991,140.0639207,2.5,'11111222,11111222,11111222' 
TABS,ioos:station:wmo:42047:1,2007-08-01T22:39:00Z,27.8966,-93.5973,4.0,1.791005304,181.9200161,3.42,'11111222,11111222,11111222' 
TABS,ioos:station:wmo:42047:1,2007-08-01T23:39:00Z,27.8966,-93.5973,4.0,3.520298283,205.4005184,4.58,'11111222,11111222,11111222' 
TABS,ioos:station:wmo:42047:1,2007-08-02T00:09:00Z,27.8966,-93.5973,4.0,3.945883931,224.3840468,4.85,'11111222,11111222,11111222' 
TABS,ioos:station:wmo:42047:1,2007-08-02T01:09:00Z,27.8966,-93.5973,4.0,5.158885539,227.2781547,6.21,'11111222,11111222,11111222' 
TABS,ioos:station:wmo:42047:1,2007-08-02T01:39:00Z,27.8966,-93.5973,4.0,4.69490149,232.007367,5.75,'11111222,11111222,11111222' 
TABS,ioos:station:wmo:42047:1,2007-08-02T02:09:00Z,27.8966,-93.5973,4.0,3.607214992,249.5555452,4.66,'11111222,11111222,11111222' 
TABS,ioos:station:wmo:42047:1,2007-08-02T02:39:00Z,27.8966,-93.5973,4.0,3.368040974,246.5557529,4.21,'11111222,11111222,11111222' 
TABS,ioos:station:wmo:42047:1,2007-08-02T03:09:00Z,27.8966,-93.5973,4.0,3.772386513,233.9503777,4.76,'11111222,11111222,11111222' 
TABS,ioos:station:wmo:42047:1,2007-08-02T03:39:00Z,27.8966,-93.5973,4.0,4.643888457,245.03534,5.51,'11111222,11111222,11111222' 
TABS,ioos:station:wmo:42047:1,2007-08-02T04:09:00Z,27.8966,-93.5973,4.0,4.217831196,242.4629618,5.37,'11111222,11111222,11111222' 
TABS,ioos:station:wmo:42047:1,2007-08-02T04:39:00Z,27.8966,-93.5973,4.0,5.768119278,251.1881547,6.92,'11111222,11111222,11111222' 
TABS,ioos:station:wmo:42047:1,2007-08-02T05:09:00Z,27.8966,-93.5973,4.0,5.811686502,260.9915173,7.01,'11111222,11111222,11111222' 
TABS,ioos:station:wmo:42047:1,2007-08-02T05:39:00Z,27.8966,-93.5973,4.0,5.670714241,269.0906217,7.0,'11111222,11111222,11111222' 
TABS,ioos:station:wmo:42047:1,2007-08-02T06:09:00Z,27.8966,-93.5973,4.0,5.840034246,269.8037828,7.44,'11111222,11111222,11111222' 
TABS,ioos:station:wmo:42047:1,2007-08-02T06:39:00Z,27.8966,-93.5973,4.0,5.626455367,274.3830747,7.02,'11111222,11111222,11111222' 
TABS,ioos:station:wmo:42047:1,2007-08-02T07:09:00Z,27.8966,-93.5973,4.0,5.568383967,278.9886533,6.89,'11111222,11111222,11111222' 
TABS,ioos:station:wmo:42047:1,2007-08-02T07:39:00Z,27.8966,-93.5973,4.0,5.775898199,282.9053641,7.16,'11111222,11111222,11111222' 
TABS,ioos:station:wmo:42047:1,2007-08-02T08:09:00Z,27.8966,-93.5973,4.0,5.383400412,289.6466188,6.67,'11111222,11111222,11111222' 
TABS,ioos:station:wmo:42047:1,2007-08-02T08:39:00Z,27.8966,-93.5973,4.0,5.733907917,297.4140823,7.22,'11111222,11111222,11111222' 
TABS,ioos:station:wmo:42047:1,2007-08-02T09:09:00Z,27.8966,-93.5973,4.0,5.716240023,303.439791,7.09,'11111222,11111222,11111222' 
TABS,ioos:station:wmo:42047:1,2007-08-02T09:39:00Z,27.8966,-93.5973,4.0,5.84522027,304.9678477,7.0,'11111222,11111222,11111222' 
TABS,ioos:station:wmo:42047:1,2007-08-02T10:09:00Z,27.8966,-93.5973,4.0,5.052227232,305.1684608,7.1,'11111222,11111222,11111222' 
TABS,ioos:station:wmo:42047:1,2007-08-02T10:39:00Z,27.8966,-93.5973,4.0,4.783053418,312.9665839,6.28,'11111222,11111222,11111222' 
TABS,ioos:station:wmo:42047:1,2007-08-02T11:09:00Z,27.8966,-93.5973,4.0,4.727620966,317.4001036,6.15,'11111222,11111222,11111222' 
TABS,ioos:station:wmo:42047:1,2007-08-02T11:39:00Z,27.8966,-93.5973,4.0,4.402556076,321.1774736,6.69,'11111222,11111222,11111222' 
TABS,ioos:station:wmo:42047:1,2007-08-02T12:09:00Z,27.8966,-93.5973,4.0,3.833131879,328.5490401,5.31,'11111222,11111222,11111222' 
TABS,ioos:station:wmo:42047:1,2007-08-02T12:39:00Z,27.8966,-93.5973,4.0,3.896074948,353.3672904,5.79,'11111222,11111222,11111222' 
TABS,ioos:station:wmo:42047:1,2007-08-02T13:09:00Z,27.8966,-93.5973,4.0,3.686570222,356.5785783,6.72,'11111222,11111222,11111222' 
TABS,ioos:station:wmo:42047:1,2007-08-02T13:39:00Z,27.8966,-93.5973,4.0,4.067542255,324.7078163,6.77,'11111222,11111222,11111222' 
TABS,ioos:station:wmo:42047:1,2007-08-02T14:09:00Z,27.8966,-93.5973,4.0,4.212457715,19.12289814,6.18,'11111222,11111222,11111222' 
TABS,ioos:station:wmo:42047:1,2007-08-02T14:39:00Z,27.8966,-93.5973,4.0,3.200765533,358.7466472,4.39,'11111222,11111222,11111222' 
TABS,ioos:station:wmo:42047:1,2007-08-02T15:09:00Z,27.8966,-93.5973,4.0,4.707143507,28.41589466,5.87,'11111222,11111222,11111222' 
TABS,ioos:station:wmo:42047:1,2007-08-02T15:39:00Z,27.8966,-93.5973,4.0,3.570224083,36.22765981,5.59,'11111222,11111222,11111222' 
TABS,ioos:station:wmo:42047:1,2007-08-02T16:09:00Z,27.8966,-93.5973,4.0,3.850467504,343.4003528,6.18,'11111222,11111222,11111222' 
TABS,ioos:station:wmo:42047:1,2007-08-02T16:39:00Z,27.8966,-93.5973,4.0,3.430524741,1.001943522,6.17,'11111222,11111222,11111222' 
TABS,ioos:station:wmo:42047:1,2007-08-02T17:09:00Z,27.8966,-93.5973,4.0,4.190011933,12.54339986,7.6,'11111222,11111222,11111222' 
TABS,ioos:station:wmo:42047:1,2007-08-02T17:39:00Z,27.8966,-93.5973,4.0,4.317927744,19.90349254,7.39,'11111222,11111222,11111222' 
TABS,ioos:station:wmo:42047:1,2007-08-02T18:09:00Z,27.8966,-93.5973,4.0,2.93,359.9997895,5.98,'11111222,11144222,11111222' 
TABS,ioos:station:wmo:42047:1,2007-08-02T18:39:00Z,27.8966,-93.5973,4.0,2.867699426,4.199276161,5.82,'11111222,11111222,11111222' 
TABS,ioos:station:wmo:42047:1,2007-08-02T19:09:00Z,27.8966,-93.5973,4.0,2.087342808,17.56664584,4.86,'11111222,11111222,11111222' 
TABS,ioos:station:wmo:42047:1,2007-08-02T19:39:00Z,27.8966,-93.5973,4.0,1.070560601,351.9453939,4.22,'11111222,11111222,11111222' 
TABS,ioos:station:wmo:42047:1,2007-08-02T20:09:00Z,27.8966,-93.5973,4.0,0.822253002,346.6396023,3.99,'11111222,11111222,11111222' 
TABS,ioos:station:wmo:42047:1,2007-08-02T20:39:00Z,27.8966,-93.5973,4.0,1.188780888,347.3664571,4.23,'11111222,11111222,11111222' 
TABS,ioos:station:wmo:42047:1,2007-08-02T21:09:00Z,27.8966,-93.5973,4.0,0.822982381,4.879051915,3.05,'11111222,11111222,11111222' 
TABS,ioos:station:wmo:42047:1,2007-08-02T21:39:00Z,27.8966,-93.5973,4.0,0.684689711,83.28975797,3.14,'11111222,11111222,11111222' 
TABS,ioos:station:wmo:42047:1,2007-08-02T22:09:00Z,27.8966,-93.5973,4.0,1.25399362,76.62827838,3.27,'11111222,11111222,11111222' 
TABS,ioos:station:wmo:42047:1,2007-08-02T22:39:00Z,27.8966,-93.5973,4.0,2.01801883,109.6923961,4.87,'11111222,11111222,11111222' 
TABS,ioos:station:wmo:42047:1,2007-08-02T23:09:00Z,27.8966,-93.5973,4.0,1.697527614,145.5613017,3.02,'11111222,11111222,11111222' 
TABS,ioos:station:wmo:42047:1,2007-08-02T23:39:00Z,27.8966,-93.5973,4.0,2.176717713,188.9865003,3.41,'11111222,11111222,11111222' 
TABS,ioos:station:wmo:42047:1,2007-08-03T00:09:00Z,27.8966,-93.5973,4.0,3.933764101,200.692585,5.35,'11111222,11111222,11111222' 
TABS,ioos:station:wmo:42047:1,2007-08-03T00:39:00Z,27.8966,-93.5973,4.0,3.828171887,206.3643978,5.0,'11111222,11111222,11111222' 
TABS,ioos:station:wmo:42047:1,2007-08-03T01:09:00Z,27.8966,-93.5973,4.0,4.032914579,213.0597361,4.9,'11111222,11111222,11111222' 
TABS,ioos:station:wmo:42047:1,2007-08-03T01:39:00Z,27.8966,-93.5973,4.0,3.869160116,211.4718214,4.74,'11111222,11111222,11111222' 
TABS,ioos:station:wmo:42047:1,2007-08-03T02:09:00Z,27.8966,-93.5973,4.0,4.245903908,208.2552025,5.04,'11111222,11111222,11111222' 
TABS,ioos:station:wmo:42047:1,2007-08-03T02:39:00Z,27.8966,-93.5973,4.0,4.423301934,220.9667036,5.38,'11111222,11111222,11111222' 
TABS,ioos:station:wmo:42047:1,2007-08-03T03:09:00Z,27.8966,-93.5973,4.0,3.585080194,234.5367187,4.66,'11111222,11111222,11111222' 
TABS,ioos:station:wmo:42047:1,2007-08-03T03:39:00Z,27.8966,-93.5973,4.0,3.861217425,224.1606687,4.49,'11111222,11111222,11111222' 
TABS,ioos:station:wmo:42047:1,2007-08-03T04:09:00Z,27.8966,-93.5973,4.0,3.014000664,233.0921689,3.83,'11111222,11111222,11111222' 
TABS,ioos:station:wmo:42047:1,2007-08-03T04:39:00Z,27.8966,-93.5973,4.0,3.118878003,231.7706369,4.02,'11111222,11111222,11111222' 
TABS,ioos:station:wmo:42047:1,2007-08-03T05:09:00Z,27.8966,-93.5973,4.0,3.220077639,236.0139124,3.91,'11111222,11111222,11111222' 
TABS,ioos:station:wmo:42047:1,2007-08-03T05:39:00Z,27.8966,-93.5973,4.0,4.378641342,226.5732574,5.5,'11111222,11111222,11111222' 
TABS,ioos:station:wmo:42047:1,2007-08-03T06:09:00Z,27.8966,-93.5973,4.0,3.855074578,243.8338141,4.57,'11111222,11111222,11111222' 
TABS,ioos:station:wmo:42047:1,2007-08-03T06:39:00Z,27.8966,-93.5973,4.0,4.021256023,242.2879766,4.75,'11111222,11111222,11111222' 
TABS,ioos:station:wmo:42047:1,2007-08-03T07:09:00Z,27.8966,-93.5973,4.0,3.968236384,241.8851123,4.97,'11111222,11111222,11111222' 
TABS,ioos:station:wmo:42047:1,2007-08-03T07:39:00Z,27.8966,-93.5973,4.0,4.176122604,249.8293938,5.22,'11111222,11111222,11111222' 
TABS,ioos:station:wmo:42047:1,2007-08-03T08:09:00Z,27.8966,-93.5973,4.0,4.792128963,250.2416679,6.4,'11111222,11111222,11111222' 
TABS,ioos:station:wmo:42047:1,2007-08-03T08:39:00Z,27.8966,-93.5973,4.0,4.698137929,253.3007948,6.13,'11111222,11111222,11111222' 
TABS,ioos:station:wmo:42047:1,2007-08-03T09:09:00Z,27.8966,-93.5973,4.0,4.86564487,258.6208127,5.97,'11111222,11111222,11111222' 
TABS,ioos:station:wmo:42047:1,2007-08-03T09:39:00Z,27.8966,-93.5973,4.0,5.400148146,270.4244044,7.07,'11111222,11111222,11111222' 
TABS,ioos:station:wmo:42047:1,2007-08-03T10:09:00Z,27.8966,-93.5973,4.0,5.627654929,278.8932122,7.09,'11111222,11111222,11111222' 
TABS,ioos:station:wmo:42047:1,2007-08-03T10:39:00Z,27.8966,-93.5973,4.0,5.347532141,285.6215747,6.45,'11111222,11111222,11111222' 
TABS,ioos:station:wmo:42047:1,2007-08-03T11:09:00Z,27.8966,-93.5973,4.0,5.116346353,294.1102483,6.38,'11111222,11111222,11111222' 
TABS,ioos:station:wmo:42047:1,2007-08-03T11:39:00Z,27.8966,-93.5973,4.0,5.331913353,300.7978239,7.42,'11111222,11111222,11111222' 
TABS,ioos:station:wmo:42047:1,2007-08-03T12:09:00Z,27.8966,-93.5973,4.0,5.390732789,310.4859169,6.6,'11111222,11111222,11111222' 
TABS,ioos:station:wmo:42047:1,2007-08-03T12:39:00Z,27.8966,-93.5973,4.0,4.996098478,312.7287365,6.31,'11111222,11111222,11111222' 
TABS,ioos:station:wmo:42047:1,2007-08-03T13:09:00Z,27.8966,-93.5973,4.0,5.662022607,322.9680693,6.78,'11111222,11111222,11111222' 
TABS,ioos:station:wmo:42047:1,2007-08-03T13:39:00Z,27.8966,-93.5973,4.0,6.160665548,342.3295647,7.86,'11111222,11111222,11111222' 
TABS,ioos:station:wmo:42047:1,2007-08-03T14:09:00Z,27.8966,-93.5973,4.0,6.027578287,355.6229658,7.3,'11111222,11111222,11111222' 
TABS,ioos:station:wmo:42047:1,2007-08-03T14:39:00Z,27.8966,-93.5973,4.0,6.197967409,350.9022313,7.58,'11111222,11111222,11111222' 
TABS,ioos:station:wmo:42047:1,2007-08-03T15:09:00Z,27.8966,-93.5973,4.0,6.526415555,31.91204026,8.45,'11111222,11111222,11111222' 
TABS,ioos:station:wmo:42047:1,2007-08-03T15:39:00Z,27.8966,-93.5973,4.0,5.128840025,29.81388256,7.36,'11111222,11111222,11111222' 
TABS,ioos:station:wmo:42047:1,2007-08-03T16:09:00Z,27.8966,-93.5973,4.0,5.085233525,38.13161405,7.41,'11111222,11111222,11111222' 
TABS,ioos:station:wmo:42047:1,2007-08-03T16:39:00Z,27.8966,-93.5973,4.0,5.020328674,50.25255109,6.89,'11111222,11111222,11111222' 
TABS,ioos:station:wmo:42047:1,2007-08-03T17:09:00Z,27.8966,-93.5973,4.0,4.568982381,43.75817736,7.17,'11111222,11111222,11111222' 
TABS,ioos:station:wmo:42047:1,2007-08-03T17:39:00Z,27.8966,-93.5973,4.0,3.4165626,54.16956275,5.9,'11111222,11111222,11111222' 
TABS,ioos:station:wmo:42047:1,2007-08-03T18:09:00Z,27.8966,-93.5973,4.0,3.597012649,67.78411367,5.68,'11111222,11111222,11111222' 
TABS,ioos:station:wmo:42047:1,2007-08-03T18:39:00Z,27.8966,-93.5973,4.0,3.328453094,73.41578943,5.59,'11111222,11111222,11111222' 
TABS,ioos:station:wmo:42047:1,2007-08-03T19:09:00Z,27.8966,-93.5973,4.0,3.161803283,100.3862838,5.63,'11111222,11111222,11111222' 
TABS,ioos:station:wmo:42047:1,2007-08-03T19:39:00Z,27.8966,-93.5973,4.0,3.505837988,98.19984143,4.75,'11111222,11111222,11111222' 
TABS,ioos:station:wmo:42047:1,2007-08-03T20:09:00Z,27.8966,-93.5973,4.0,3.611454001,103.6133672,4.69,'11111222,11111222,11111222' 
TABS,ioos:station:wmo:42047:1,2007-08-03T20:39:00Z,27.8966,-93.5973,4.0,4.470883582,123.6904097,5.5,'11111222,11111222,11111222' 
TABS,ioos:station:wmo:42047:1,2007-08-03T21:09:00Z,27.8966,-93.5973,4.0,4.093372693,128.3540986,5.36,'11111222,11111222,11111222' 
TABS,ioos:station:wmo:42047:1,2007-08-03T21:39:00Z,27.8966,-93.5973,4.0,3.791173961,140.1366822,4.93,'11111222,11111222,11111222' 
TABS,ioos:station:wmo:42047:1,2007-08-03T22:09:00Z,27.8966,-93.5973,4.0,4.44235298,151.935376,5.4,'11111222,11111222,11111222' 
TABS,ioos:station:wmo:42047:1,2007-08-03T22:39:00Z,27.8966,-93.5973,4.0,4.243170984,155.7909923,5.19,'11111222,11111222,11111222' 
TABS,ioos:station:wmo:42047:1,2007-08-03T23:09:00Z,27.8966,-93.5973,4.0,4.850773134,165.677524,5.95,'11111222,11111222,11111222' 
TABS,ioos:station:wmo:42047:1,2007-08-03T23:39:00Z,27.8966,-93.5973,4.0,5.091659847,172.6658488,6.52,'11111222,11111222,11111222' 
TABS,ioos:station:wmo:42047:1,2007-08-04T02:09:00Z,27.8966,-93.5973,4.0,4.523825815,196.8328586,5.6,'11111222,11111222,11111222' 
TABS,ioos:station:wmo:42047:1,2007-08-04T02:39:00Z,27.8966,-93.5973,4.0,4.029342378,199.4244246,5.44,'11111222,11111222,11111222' 
TABS,ioos:station:wmo:42047:1,2007-08-04T03:09:00Z,27.8966,-93.5973,4.0,4.030942818,219.059504,4.98,'11111222,11111222,11111222' 
TABS,ioos:station:wmo:42047:1,2007-08-04T03:39:00Z,27.8966,-93.5973,4.0,3.98282563,226.7296436,4.73,'11111222,11111222,11111222' 
TABS,ioos:station:wmo:42047:1,2007-08-04T04:09:00Z,27.8966,-93.5973,4.0,3.833431883,230.0797012,4.74,'11111222,11111222,11111222' 
TABS,ioos:station:wmo:42047:1,2007-08-04T04:39:00Z,27.8966,-93.5973,4.0,3.22684056,229.3988003,4.36,'11111222,11111222,11111222' 
TABS,ioos:station:wmo:42047:1,2007-08-04T05:09:00Z,27.8966,-93.5973,4.0,4.133860181,234.8490967,5.32,'11111222,11111222,11111222' 
TABS,ioos:station:wmo:42047:1,2007-08-04T05:39:00Z,27.8966,-93.5973,4.0,4.398567949,225.7369861,5.9,'11111222,11111222,11111222' 
TABS,ioos:station:wmo:42047:1,2007-08-04T06:09:00Z,27.8966,-93.5973,4.0,5.414212777,233.6381529,6.51,'11111222,11111222,11111222' 
TABS,ioos:station:wmo:42047:1,2007-08-04T06:39:00Z,27.8966,-93.5973,4.0,5.334275958,237.3229332,6.59,'11111222,11111222,11111222' 
TABS,ioos:station:wmo:42047:1,2007-08-04T07:09:00Z,27.8966,-93.5973,4.0,4.948141065,238.301542,6.23,'11111222,11111222,11111222' 
TABS,ioos:station:wmo:42047:1,2007-08-04T07:39:00Z,27.8966,-93.5973,4.0,4.92382981,243.3309318,6.3,'11111222,11111222,11111222' 
TABS,ioos:station:wmo:42047:1,2007-08-04T08:09:00Z,27.8966,-93.5973,4.0,4.765920688,249.3595791,5.78,'11111222,11111222,11111222' 
TABS,ioos:station:wmo:42047:1,2007-08-04T08:39:00Z,27.8966,-93.5973,4.0,4.311159937,265.8765176,8.35,'11111222,11111222,11111222' 
TABS,ioos:station:wmo:42047:1,2007-08-04T09:09:00Z,27.8966,-93.5973,4.0,1.087060256,219.400779,2.37,'11111222,11111222,11111222' 
TABS,ioos:station:wmo:42047:1,2007-08-04T09:39:00Z,27.8966,-93.5973,4.0,2.840158446,180.6054236,5.42,'11111222,11111222,11111222' 
TABS,ioos:station:wmo:42047:1,2007-08-04T10:09:00Z,27.8966,-93.5973,4.0,4.634932578,255.6339907,7.82,'11111222,11111222,11111222' 
TABS,ioos:station:wmo:42047:1,2007-08-04T10:39:00Z,27.8966,-93.5973,4.0,5.48249031,285.2275855,7.31,'11111222,11111222,11111222' 
TABS,ioos:station:wmo:42047:1,2007-08-04T11:09:00Z,27.8966,-93.5973,4.0,4.250599958,274.0471925,5.69,'11111222,11111222,11111222' 
TABS,ioos:station:wmo:42047:1,2007-08-04T11:39:00Z,27.8966,-93.5973,4.0,5.557877293,298.593938,6.59,'11111222,11111222,11111222' 
TABS,ioos:station:wmo:42047:1,2007-08-04T12:09:00Z,27.8966,-93.5973,4.0,6.863854602,321.2097064,8.89,'11111222,11111222,11111222' 
TABS,ioos:station:wmo:42047:1,2007-08-04T12:39:00Z,27.8966,-93.5973,4.0,5.727704601,23.56610573,8.82,'11111222,11111222,11111222' 
TABS,ioos:station:wmo:42047:1,2007-08-04T13:09:00Z,27.8966,-93.5973,4.0,3.896062114,64.61848766,8.43,'11111222,11111222,11111222' 
TABS,ioos:station:wmo:42047:1,2007-08-04T13:39:00Z,27.8966,-93.5973,4.0,1.214619282,112.7653768,3.74,'11111222,11111222,11111222' 
TABS,ioos:station:wmo:42047:1,2007-08-04T14:09:00Z,27.8966,-93.5973,4.0,1.572577502,146.4112721,4.98,'11111222,11111222,11111222' 
TABS,ioos:station:wmo:42047:1,2007-08-04T14:39:00Z,27.8966,-93.5973,4.0,2.205107707,147.0308837,4.57,'11111222,11111222,11111222' 
TABS,ioos:station:wmo:42047:1,2007-08-04T15:09:00Z,27.8966,-93.5973,4.0,2.025487596,187.090124,4.77,'11111222,11111222,11111222' 
TABS,ioos:station:wmo:42047:1,2007-08-04T15:39:00Z,27.8966,-93.5973,4.0,3.020496648,213.111475,4.11,'11111222,11111222,11111222' 
TABS,ioos:station:wmo:42047:1,2007-08-04T16:09:00Z,27.8966,-93.5973,4.0,2.173476478,206.8009827,3.62,'11111222,11111222,11111222' 
TABS,ioos:station:wmo:42047:1,2007-08-04T16:39:00Z,27.8966,-93.5973,4.0,2.277981563,226.7789014,3.39,'11111222,11111222,11111222' 
TABS,ioos:station:wmo:42047:1,2007-08-04T17:09:00Z,27.8966,-93.5973,4.0,2.722149886,246.1657928,3.77,'11111222,11111222,11111222' 
TABS,ioos:station:wmo:42047:1,2007-08-04T17:39:00Z,27.8966,-93.5973,4.0,2.292705825,251.9602304,3.38,'11111222,11111222,11111222' 
TABS,ioos:station:wmo:42047:1,2007-08-04T18:09:00Z,27.8966,-93.5973,4.0,2.543422891,249.9976941,3.85,'11111222,11111222,11111222' 
TABS,ioos:station:wmo:42047:1,2007-08-04T18:39:00Z,27.8966,-93.5973,4.0,2.257542912,227.3337462,3.84,'11111222,11111222,11111222' 
TABS,ioos:station:wmo:42047:1,2007-08-04T19:09:00Z,27.8966,-93.5973,4.0,2.238972979,234.8193829,3.28,'11111222,11111222,11111222' 
TABS,ioos:station:wmo:42047:1,2007-08-04T19:39:00Z,27.8966,-93.5973,4.0,2.544896854,207.3707091,3.91,'11111222,11111222,11111222' 
TABS,ioos:station:wmo:42047:1,2007-08-04T20:09:00Z,27.8966,-93.5973,4.0,2.492268043,227.9274464,3.6,'11111222,11111222,11111222' 
TABS,ioos:station:wmo:42047:1,2007-08-04T20:39:00Z,27.8966,-93.5973,4.0,2.739288229,231.3729479,4.35,'11111222,11111222,11111222' 
TABS,ioos:station:wmo:42047:1,2007-08-04T21:09:00Z,27.8966,-93.5973,4.0,2.652036953,243.821485,4.81,'11111222,11111222,11111222' 
TABS,ioos:station:wmo:42047:1,2007-08-04T21:39:00Z,27.8966,-93.5973,4.0,3.032111476,243.3505042,4.45,'11111222,11111222,11111222' 
TABS,ioos:station:wmo:42047:1,2007-08-04T22:09:00Z,27.8966,-93.5973,4.0,3.260567435,250.8426851,4.55,'11111222,11111222,11111222' 
TABS,ioos:station:wmo:42047:1,2007-08-04T22:39:00Z,27.8966,-93.5973,4.0,3.394539733,253.2199602,4.36,'11111222,11111222,11111222' 
TABS,ioos:station:wmo:42047:1,2007-08-04T23:09:00Z,27.8966,-93.5973,4.0,3.522300385,245.6907254,4.71,'11111222,11111222,11111222' 
TABS,ioos:station:wmo:42047:1,2007-08-04T23:39:00Z,27.8966,-93.5973,4.0,3.117515036,235.8512481,4.36,'11111222,11111222,11111222' 
TABS,ioos:station:wmo:42047:1,2007-08-05T00:09:00Z,27.8966,-93.5973,4.0,3.695294305,241.9093375,4.97,'11111222,11111222,11111222' 
TABS,ioos:station:wmo:42047:1,2007-08-05T00:39:00Z,27.8966,-93.5973,4.0,3.572464136,239.5589213,4.78,'11111222,11111222,11111222' 
TABS,ioos:station:wmo:42047:1,2007-08-05T01:09:00Z,27.8966,-93.5973,4.0,3.686353212,244.9643857,5.24,'11111222,11111222,11111222' 